TimeCDT,TemperatureF,Dew PointF,Humidity,Sea Level PressureIn,VisibilityMPH,Wind Direction,Wind SpeedMPH,Gust SpeedMPH,PrecipitationIn,Events,Conditions,WindDirDegrees,DateUTC
12:53 AM,73.9,66.0,76,29.88,10.0,North,5.8,-,N/A,,Overcast,350,2013-07-20 05:53:00
1:53 AM,73.0,64.0,73,29.88,10.0,North,6.9,-,N/A,,Scattered Clouds,350,2013-07-20 06:53:00
2:53 AM,69.1,63.0,81,29.88,10.0,North,6.9,-,N/A,,Partly Cloudy,360,2013-07-20 07:53:00
3:53 AM,66.9,62.1,84,29.88,10.0,North,6.9,-,N/A,,Clear,350,2013-07-20 08:53:00
4:53 AM,66.0,61.0,84,29.88,10.0,North,8.1,-,N/A,,Clear,360,2013-07-20 09:53:00
5:53 AM,64.0,60.1,87,29.90,10.0,North,5.8,-,N/A,,Clear,360,2013-07-20 10:53:00
6:53 AM,64.9,61.0,87,29.90,10.0,Calm,Calm,-,N/A,,Clear,0,2013-07-20 11:53:00
7:53 AM,72.0,62.1,71,29.91,10.0,NNE,5.8,-,N/A,,Clear,30,2013-07-20 12:53:00
8:53 AM,75.9,63.0,64,29.91,10.0,ENE,5.8,-,N/A,,Clear,60,2013-07-20 13:53:00
9:53 AM,80.1,61.0,52,29.91,10.0,East,9.2,-,N/A,,Clear,80,2013-07-20 14:53:00
10:53 AM,82.9,61.0,47,29.94,10.0,Variable,5.8,-,N/A,,Clear,0,2013-07-20 15:53:00
11:53 AM,84.9,61.0,44,29.94,10.0,NNE,9.2,-,N/A,,Clear,20,2013-07-20 16:53:00
12:53 PM,84.9,60.1,43,29.93,10.0,Variable,6.9,-,N/A,,Clear,0,2013-07-20 17:53:00
1:53 PM,86.0,59.0,40,29.92,10.0,Variable,3.5,-,N/A,,Clear,0,2013-07-20 18:53:00
2:53 PM,86.0,59.0,40,29.91,10.0,Variable,4.6,-,N/A,,Clear,0,2013-07-20 19:53:00
3:53 PM,87.1,57.0,36,29.89,10.0,Variable,4.6,-,N/A,,Clear,0,2013-07-20 20:53:00
4:53 PM,88.0,57.0,35,29.88,10.0,East,5.8,-,N/A,,Clear,80,2013-07-20 21:53:00
5:53 PM,84.9,57.9,40,29.86,10.0,Calm,Calm,-,N/A,,Clear,0,2013-07-20 22:53:00
6:53 PM,86.0,57.9,38,29.87,10.0,East,4.6,-,N/A,,Clear,80,2013-07-20 23:53:00
7:53 PM,82.0,61.0,49,29.87,10.0,East,4.6,-,N/A,,Clear,100,2013-07-21 00:53:00
8:53 PM,80.1,62.1,54,29.88,10.0,ESE,5.8,-,N/A,,Clear,110,2013-07-21 01:53:00
9:53 PM,75.9,63.0,64,29.90,10.0,East,6.9,-,N/A,,Clear,100,2013-07-21 02:53:00
10:53 PM,75.9,64.0,67,29.91,10.0,ESE,4.6,-,N/A,,Clear,110,2013-07-21 03:53:00
11:53 PM,71.1,63.0,75,29.91,10.0,SE,6.9,-,N/A,,Clear,140,2013-07-21 04:53:00